ZSMUL FZAA-FZEA

Flight info

Callsign ZSMUL
Flight time N/A
Altitude 13000
Route GUSAR4A GUSAR V30 EMVOT OVRI1C
Aircraft DC6/M-SDFGRWY/S

Departure

Time 2026-05-06 14:33
Airport Ndjili International Airport (FZAA)

Arrival

Time N/A
Airport Mbandaka Airport (FZEA)
Time Latitude Longitude Altitude Speed Heading
2026-05-06 14:17 -4.38897 15.44500 1021 ft 0 kts 197°
2026-05-06 14:26 -4.38890 15.44502 1010 ft 4 kts 193°
2026-05-06 14:26 -4.38866 15.44503 1010 ft 4 kts 141°
2026-05-06 14:26 -4.38861 15.44500 1010 ft 0 kts 101°
2026-05-06 14:29 -4.38862 15.44506 1010 ft 1 kts 87°
2026-05-06 14:29 -4.38856 15.44519 1010 ft 3 kts 50°
2026-05-06 14:30 -4.38832 15.44535 1010 ft 5 kts 21°
2026-05-06 14:30 -4.38786 15.44539 1011 ft 8 kts 356°
2026-05-06 14:30 -4.38721 15.44535 1011 ft 11 kts 347°
2026-05-06 14:30 -4.38643 15.44494 1012 ft 14 kts 327°
2026-05-06 14:31 -4.38602 15.44416 1012 ft 12 kts 257°
2026-05-06 14:31 -4.38649 15.44335 1011 ft 16 kts 236°
2026-05-06 14:31 -4.38746 15.44185 1010 ft 40 kts 237°
2026-05-06 14:31 -4.38966 15.43841 1008 ft 76 kts 236°
2026-05-06 14:32 -4.39314 15.43309 1012 ft 105 kts 238°
2026-05-06 14:32 -4.39745 15.42647 1050 ft 122 kts 239°
2026-05-06 14:32 -4.40231 15.41894 1117 ft 135 kts 239°
2026-05-06 14:32 -4.40755 15.41060 1198 ft 148 kts 239°
2026-05-06 14:33 -4.41280 15.40139 1376 ft 154 kts 244°
2026-05-06 14:33 -4.41801 15.39187 1556 ft 158 kts 240°
2026-05-06 14:33 -4.42385 15.38237 1753 ft 162 kts 239°
2026-05-06 14:33 -4.42968 15.37278 1964 ft 165 kts 239°
2026-05-06 14:34 -4.43576 15.36290 2186 ft 168 kts 238°
2026-05-06 14:34 -4.44193 15.35294 2395 ft 167 kts 237°
2026-05-06 14:34 -4.45022 15.34500 2509 ft 169 kts 206°
2026-05-06 14:34 -4.46172 15.34334 2642 ft 170 kts 170°
2026-05-06 14:35 -4.47209 15.34877 2793 ft 171 kts 135°
2026-05-06 14:35 -4.47755 15.35918 2950 ft 172 kts 100°
2026-05-06 14:35 -4.47617 15.37087 3100 ft 171 kts 65°
2026-05-06 14:35 -4.46858 15.37961 3251 ft 170 kts 31°
2026-05-06 14:36 -4.45815 15.38494 3455 ft 167 kts 27°
2026-05-06 14:36 -4.44814 15.39087 3619 ft 167 kts 31°
2026-05-06 14:36 -4.43818 15.39690 3789 ft 167 kts 30°
2026-05-06 14:36 -4.42820 15.40290 3952 ft 167 kts 31°
2026-05-06 14:37 -4.41824 15.40895 4111 ft 168 kts 31°
2026-05-06 14:37 -4.40824 15.41502 4270 ft 169 kts 31°
2026-05-06 14:37 -4.39832 15.42137 4454 ft 169 kts 36°
2026-05-06 14:37 -4.38853 15.42790 4624 ft 169 kts 31°
2026-05-06 14:38 -4.37865 15.43401 4792 ft 169 kts 33°
2026-05-06 14:38 -4.36877 15.44043 4957 ft 169 kts 33°
2026-05-06 14:38 -4.35887 15.44684 5124 ft 169 kts 33°
2026-05-06 14:38 -4.34898 15.45327 5281 ft 169 kts 33°
2026-05-06 14:39 -4.33908 15.45969 5446 ft 169 kts 33°
2026-05-06 14:39 -4.32921 15.46613 5605 ft 169 kts 33°
2026-05-06 14:39 -4.31931 15.47253 5762 ft 169 kts 33°
2026-05-06 14:39 -4.30946 15.47895 5916 ft 169 kts 33°
2026-05-06 14:40 -4.29960 15.48534 6066 ft 169 kts 33°
2026-05-06 14:40 -4.28991 15.49165 6211 ft 168 kts 33°
2026-05-06 14:40 -4.28007 15.49804 6344 ft 169 kts 32°
2026-05-06 14:40 -4.27022 15.50444 6480 ft 170 kts 33°
2026-05-06 14:41 -4.26006 15.51103 6448 ft 175 kts 32°
2026-05-06 14:41 -4.24978 15.51770 6452 ft 177 kts 33°
2026-05-06 14:41 -4.23938 15.52446 6448 ft 180 kts 32°
2026-05-06 14:41 -4.22881 15.53131 6452 ft 182 kts 32°
2026-05-06 14:42 -4.21810 15.53825 6462 ft 185 kts 33°